Weather History for Cumberland, WI

Change the Weather History Date:

Wednesday, December 5, 2012

  Actual Average (KRPD) Record (KRPD)
Temperature  
Mean Temperature 24 °F -  
Max Temperature 33 °F 31 °F 62 °F (2001)
Min Temperature 14 °F 18 °F -5 °F (2000)
Degree Days  
Heating Degree Days 42    
Moisture  
Dew Point 14 °F    
Average Humidity 65    
Maximum Humidity 86    
Minimum Humidity 48    
Precipitation  
Precipitation 0.00 in - - ()
Sea Level Pressure  
Sea Level Pressure 30.20 in    
Wind  
Wind Speed 8 mph (SE)    
Max Wind Speed 22 mph    
Max Gust Speed 28 mph    
Visibility 10 miles    
Events      
Averages and records for this station are not official NWS values.
T = Trace of Precipitation, MM = Missing Value Source: NWS Daily Summary

Daily Weather History Graph

Daily Weather History Graph

Search for Another Location

Airport:

Trip Planner

Search our weather history database for the weather conditions in past years. The results will help you decide how hot, cold, wet, or windy it might be!

Date:

Astronomy

Dec. 05, 2012 Rise Set
Actual Time 7:32 AM CST 4:24 PM CST
Civil Twilight 6:58 AM CST 4:58 PM CST
Nautical Twilight 6:21 AM CST 5:35 PM CST
Astronomical Twilight 5:45 AM CST 6:11 PM CST
Moon 11:30 PM CST (12/5) 11:42 AM CST (12/5)
Length of Visible Light 9h 59m
Length of Day
8h 52m
Waning Gibbous, 59% of the Moon is Illuminated
Dec 5
Waning Gibbous
Dec 6
Last Quarter
Dec 13
New
Dec 19
First Quarter
Dec 28
Full

Hourly Weather History & Observations

Time (CST) Temp. Windchill Dew Point Humidity Pressure Visibility Wind Dir Wind Speed Gust Speed Precip Events Conditions
12:15 AM 15.8 °F 8.6 °F 10.4 °F 79% 30.37 in 10.0 mi North 4.6 mph - N/A   Clear
12:35 AM 15.8 °F 8.6 °F 10.4 °F 79% 30.38 in 10.0 mi NNW 4.6 mph - N/A   Clear
12:55 AM 15.8 °F - 10.4 °F 79% 30.38 in 10.0 mi Calm Calm - N/A   Clear
1:15 AM 14.0 °F - 10.4 °F 86% 30.38 in 10.0 mi Calm Calm - N/A   Clear
1:55 AM 15.8 °F - 10.4 °F 79% 30.37 in 10.0 mi Calm Calm - N/A   Clear
2:15 AM 15.8 °F - 10.4 °F 79% 30.38 in 10.0 mi Calm Calm - N/A   Clear
2:35 AM 14.0 °F - 10.4 °F 86% 30.38 in 10.0 mi Calm Calm - N/A   Clear
2:55 AM 14.0 °F - 10.4 °F 86% 30.38 in 10.0 mi Calm Calm - N/A   Clear
3:15 AM 14.0 °F - 10.4 °F 86% 30.39 in 10.0 mi Calm Calm - N/A   Clear
3:35 AM 14.0 °F - 10.4 °F 86% 30.39 in 10.0 mi Calm Calm - N/A   Clear
3:55 AM 14.0 °F - 10.4 °F 86% 30.40 in 10.0 mi Calm Calm - N/A   Clear
4:15 AM 14.0 °F - 10.4 °F 86% 30.39 in 10.0 mi Calm Calm - N/A   Clear
4:35 AM 14.0 °F 6.5 °F 10.4 °F 86% 30.37 in 10.0 mi East 4.6 mph - N/A   Clear
4:55 AM 14.0 °F - 10.4 °F 86% 30.37 in 10.0 mi Calm Calm - N/A   Clear
5:15 AM 14.0 °F 8.2 °F 10.4 °F 86% 30.37 in 10.0 mi East 3.5 mph - N/A   Clear
5:35 AM 14.0 °F 8.2 °F 10.4 °F 86% 30.37 in 10.0 mi East 3.5 mph - N/A   Clear
5:55 AM 14.0 °F 8.2 °F 10.4 °F 86% 30.36 in 10.0 mi East 3.5 mph - N/A   Clear
6:15 AM 14.0 °F 3.9 °F 10.4 °F 86% 30.36 in 10.0 mi East 6.9 mph - N/A   Clear
6:35 AM 14.0 °F 6.5 °F 10.4 °F 86% 30.36 in 10.0 mi East 4.6 mph - N/A   Clear
6:55 AM 14.0 °F - 10.4 °F 86% 30.37 in 10.0 mi Calm Calm - N/A   Clear
8:35 AM 17.6 °F 8.2 °F 12.2 °F 79% 30.36 in 10.0 mi SE 6.9 mph - N/A   Clear
8:55 AM 17.6 °F 7.3 °F 12.2 °F 79% 30.36 in 10.0 mi SE 8.1 mph - N/A   Clear
9:15 AM 19.4 °F 10.4 °F 14.0 °F 80% 30.36 in 10.0 mi SE 6.9 mph - N/A   Clear
9:35 AM 19.4 °F 8.6 °F 14.0 °F 80% 30.36 in 10.0 mi SE 9.2 mph - N/A   Clear
9:55 AM 21.2 °F 10.1 °F 15.8 °F 80% 30.36 in 10.0 mi SE 10.4 mph - N/A   Clear
10:15 AM 23.0 °F 11.1 °F 15.8 °F 74% 30.36 in 10.0 mi SE 12.7 mph - N/A   Clear
10:35 AM 23.0 °F 11.1 °F 15.8 °F 74% 30.34 in 10.0 mi SE 12.7 mph - N/A   Clear
10:55 AM 24.8 °F 13.4 °F 15.8 °F 69% 30.33 in 10.0 mi SE 12.7 mph - N/A   Clear
11:15 AM 26.6 °F 13.8 °F 15.8 °F 64% 30.31 in 10.0 mi SSE 17.3 mph 20.7 mph N/A   Clear
11:35 AM 26.6 °F 14.7 °F 15.8 °F 64% 30.30 in 10.0 mi SSE 15.0 mph - N/A   Clear
11:55 AM 28.4 °F 17.0 °F 15.8 °F 59% 30.28 in 10.0 mi SE 15.0 mph - N/A   Clear
12:15 PM 28.4 °F 17.5 °F 14.0 °F 55% 30.27 in 10.0 mi SSE 13.8 mph 19.6 mph N/A   Clear
12:35 PM 28.4 °F 17.5 °F 14.0 °F 55% 30.25 in 10.0 mi SE 13.8 mph - N/A   Clear
12:55 PM 28.4 °F 17.0 °F 14.0 °F 55% 30.23 in 10.0 mi SE 15.0 mph 20.7 mph N/A   Clear
1:15 PM 28.4 °F 16.2 °F 14.0 °F 55% 30.23 in 10.0 mi SE 17.3 mph - N/A   Clear
1:35 PM 30.2 °F 19.8 °F 14.0 °F 51% 30.21 in 10.0 mi SE 13.8 mph - N/A   Clear
1:55 PM 30.2 °F 20.8 °F 14.0 °F 51% 30.20 in 10.0 mi SE 11.5 mph - N/A   Clear
2:15 PM 30.2 °F 19.3 °F 14.0 °F 51% 30.19 in 10.0 mi SSE 15.0 mph - N/A   Clear
2:35 PM 30.2 °F 19.3 °F 14.0 °F 51% 30.18 in 10.0 mi SE 15.0 mph 21.9 mph N/A   Clear
2:55 PM 30.2 °F 20.2 °F 14.0 °F 51% 30.17 in 10.0 mi SE 12.7 mph - N/A   Clear
3:15 PM 30.2 °F 20.2 °F 14.0 °F 51% 30.15 in 10.0 mi SE 12.7 mph 16.1 mph N/A   Clear
3:35 PM 30.2 °F 18.5 °F 14.0 °F 51% 30.14 in 10.0 mi SE 17.3 mph 23.0 mph N/A   Clear
3:55 PM 30.2 °F 19.8 °F 14.0 °F 51% 30.13 in 10.0 mi SE 13.8 mph 17.3 mph N/A   Scattered Clouds
4:15 PM 30.2 °F 18.5 °F 14.0 °F 51% 30.12 in 10.0 mi SE 17.3 mph 20.7 mph N/A   Mostly Cloudy
4:35 PM 30.2 °F 19.3 °F 14.0 °F 51% 30.11 in 10.0 mi SE 15.0 mph 20.7 mph N/A   Overcast
4:55 PM 30.2 °F 18.9 °F 14.0 °F 51% 30.09 in 10.0 mi SE 16.1 mph 21.9 mph N/A   Scattered Clouds
5:15 PM 30.2 °F 19.3 °F 14.0 °F 51% 30.08 in 10.0 mi SE 15.0 mph 23.0 mph N/A   Clear
5:35 PM 30.2 °F 21.3 °F 14.0 °F 51% 30.08 in 10.0 mi SE 10.4 mph 20.7 mph N/A   Mostly Cloudy
5:55 PM 30.2 °F 19.8 °F 14.0 °F 51% 30.06 in 10.0 mi SE 13.8 mph 20.7 mph N/A   Overcast
6:15 PM 30.2 °F 18.1 °F 14.0 °F 51% 30.04 in 10.0 mi SSE 18.4 mph 27.6 mph N/A   Mostly Cloudy
6:35 PM 30.2 °F 18.1 °F 14.0 °F 51% 30.03 in 10.0 mi SSE 18.4 mph 25.3 mph N/A   Mostly Cloudy
6:55 PM 32.0 °F 19.5 °F 14.0 °F 48% 30.00 in 10.0 mi SE 21.9 mph 27.6 mph N/A   Overcast
7:15 PM 32.0 °F 21.2 °F 15.8 °F 51% 30.00 in 10.0 mi SSE 16.1 mph 24.2 mph N/A   Overcast
7:35 PM 32.0 °F 21.6 °F 15.8 °F 51% 30.00 in 10.0 mi SSE 15.0 mph - N/A   Mostly Cloudy
7:55 PM 32.0 °F 21.6 °F 15.8 °F 51% 29.99 in 10.0 mi SSE 15.0 mph 18.4 mph N/A   Overcast
8:15 PM 32.0 °F 21.2 °F 15.8 °F 51% 29.98 in 10.0 mi SSE 16.1 mph - N/A   Overcast
8:35 PM 32.0 °F 19.8 °F 15.8 °F 51% 29.98 in 10.0 mi SSE 20.7 mph 26.5 mph N/A   Overcast
8:55 PM 32.0 °F 20.5 °F 17.6 °F 55% 29.97 in 10.0 mi SSE 18.4 mph 23.0 mph N/A   Mostly Cloudy
9:15 PM 32.0 °F 19.5 °F 17.6 °F 55% 29.96 in 10.0 mi SSE 21.9 mph 27.6 mph N/A   Overcast
9:35 PM 32.0 °F 21.2 °F 17.6 °F 55% 29.97 in 10.0 mi SSE 16.1 mph 20.7 mph N/A   Overcast
9:55 PM 32.0 °F 20.5 °F 17.6 °F 55% 29.96 in 10.0 mi South 18.4 mph 26.5 mph N/A   Overcast
10:15 PM 32.0 °F 20.5 °F 17.6 °F 55% 29.95 in 10.0 mi SSE 18.4 mph 24.2 mph N/A   Overcast
10:35 PM 32.0 °F 20.5 °F 17.6 °F 55% 29.94 in 10.0 mi South 18.4 mph 24.2 mph N/A   Overcast
10:55 PM 32.0 °F 20.1 °F 19.4 °F 60% 29.93 in 10.0 mi SSE 19.6 mph 25.3 mph N/A   Overcast
11:15 PM 32.0 °F 23.0 °F 19.4 °F 60% 29.93 in 10.0 mi South 11.5 mph - N/A   Overcast
11:35 PM 33.8 °F 23.9 °F 19.4 °F 56% 29.93 in 10.0 mi SSE 15.0 mph 23.0 mph N/A   Overcast
11:55 PM 33.8 °F 23.9 °F 19.4 °F 56% 29.92 in 10.0 mi SSE 15.0 mph 24.2 mph N/A   Overcast